Total_Precipitation_Accumulation
0.59 0.72 0.77 0.91 0.87 1.43 1.04 0.81 0.57 1.09 1.10 0.87 0.46 0.74 0.46 0.50 0.46 0.40 0.45 0.31 0.19 0.00 0.03 0.08 0.14 0.34 0.23 0.20 0.22 0.23 0.22 0.19 0.14 0.12 0.13 0.09 0.05 0.09 0.18 0.20 0.14 0.07 0.04 0.02 0.01 0.00 0.00 0.00 0.00 0.00 0.01 0.00 0.01 0.02 0.02 0.00 0.00 0.00 0.00 0.00 0.00 0.00 0.00 0.00 0.00 0.00 0.00 0.00 0.00 0.00 0.00 0.00 0.00 0.00 0.00 0.00 0.00 0.00 0.00 0.00 0.00 0.00 0.00 0.00 0.00 0.00 0.00 0.01
0.70 0.93 0.67 0.57 0.76 1.00 1.03 1.14 1.07 0.95 1.25 0.65 0.73 0.74 0.62 0.48 0.45 0.44 0.46 0.33 0.41 0.04 0.03 0.05 0.09 0.19 0.27 0.20 0.19 0.19 0.18 0.16 0.15 0.09 0.09 0.10 0.06 0.12 0.20 0.22 0.17 0.07 0.04 0.07 0.06 0.04 0.04 0.00 0.00 0.00 0.00 0.00 0.01 0.03 0.02 0.02 0.00 0.00 0.01 0.00 0.00 0.00 0.00 0.00 0.00 0.00 0.00 0.00 0.00 0.00 0.00 0.00 0.00 0.00 0.00 0.00 0.00 0.00 0.00 0.00 0.00 0.00 0.00 0.00 0.00 0.00 0.00 0.02
0.75 0.68 1.02 0.73 0.65 0.78 0.94 1.13 0.76 0.90 1.06 0.96 0.68 0.55 0.72 0.53 0.55 0.44 0.28 0.42 0.45 0.28 0.09 0.07 0.07 0.11 0.23 0.23 0.14 0.16 0.14 0.14 0.13 0.08 0.02 0.03 0.09 0.12 0.17 0.17 0.15 0.09 0.07 0.11 0.10 0.09 0.07 0.02 0.00 0.00 0.00 0.00 0.00 0.03 0.02 0.01 0.00 0.00 0.00 0.00 0.00 0.00 0.00 0.00 0.00 0.00 0.00 0.00 0.00 0.00 0.00 0.00 0.00 0.00 0.00 0.00 0.00 0.00 0.00 0.00 0.00 0.00 0.00 0.00 0.00 0.00 0.01 0.02
0.62 0.80 0.76 0.81 0.75 0.68 0.72 0.87 1.13 0.62 0.93 1.11 0.87 0.86 0.60 0.86 0.61 0.59 0.39 0.31 0.46 0.55 0.10 0.07 0.08 0.09 0.10 0.12 0.16 0.12 0.14 0.14 0.12 0.09 0.02 0.03 0.09 0.13 0.12 0.14 0.11 0.13 0.11 0.14 0.15 0.12 0.08 0.04 0.00 0.00 0.01 0.01 0.02 0.01 0.03 0.01 0.00 0.00 0.00 0.00 0.00 0.00 0.00 0.00 0.00 0.00 0.00 0.00 0.00 0.00 0.00 0.00 0.00 0.00 0.00 0.00 0.00 0.00 0.00 0.00 0.00 0.00 0.00 0.00 0.00 0.00 0.01 0.02
0.51 0.58 1.00 0.74 0.73 0.80 0.54 0.80 1.22 0.76 1.03 0.85 1.07 0.72 0.98 0.61 0.89 0.60 0.61 0.44 0.44 0.63 0.44 0.18 0.07 0.09 0.10 0.06 0.10 0.11 0.13 0.17 0.14 0.02 0.03 0.09 0.08 0.11 0.14 0.12 0.10 0.12 0.15 0.16 0.22 0.16 0.12 0.08 0.01 0.01 0.02 0.04 0.02 0.03 0.02 0.02 0.00 0.00 0.00 0.01 0.00 0.00 0.00 0.00 0.00 0.00 0.00 0.00 0.00 0.00 0.00 0.00 0.00 0.00 0.00 0.00 0.00 0.00 0.00 0.00 0.00 0.00 0.00 0.00 0.00 0.00 0.01 0.01
0.40 0.49 0.64 0.93 0.82 0.73 0.71 0.66 0.85 1.24 0.66 1.07 0.68 1.13 0.82 1.26 0.99 0.84 0.64 0.46 0.73 0.57 0.31 0.28 0.19 0.19 0.14 0.07 0.10 0.09 0.11 0.34 0.22 0.02 0.03 0.08 0.14 0.10 0.07 0.10 0.12 0.10 0.15 0.21 0.25 0.22 0.19 0.13 0.06 0.01 0.05 0.05 0.02 0.03 0.02 0.01 0.01 0.01 0.00 0.00 0.00 0.00 0.00 0.00 0.00 0.00 0.00 0.00 0.00 0.00 0.00 0.00 0.00 0.00 0.00 0.00 0.00 0.00 0.00 0.00 0.00 0.00 0.00 0.00 0.00 0.00 0.01 0.01
0.34 0.37 0.52 0.72 0.81 0.71 0.67 0.65 0.72 1.21 0.97 0.82 1.09 0.50 1.20 0.83 1.27 0.88 0.69 0.49 0.56 0.22 0.43 0.45 0.16 0.14 0.13 0.11 0.10 0.08 0.06 0.06 0.00 0.02 0.07 0.08 0.08 0.13 0.13 0.09 0.19 0.12 0.13 0.19 0.26 0.30 0.24 0.22 0.11 0.06 0.02 0.05 0.04 0.01 0.01 0.01 0.01 0.01 0.00 0.00 0.00 0.00 0.00 0.00 0.00 0.00 0.00 0.00 0.00 0.00 0.00 0.00 0.00 0.00 0.00 0.00 0.00 0.00 0.00 0.00 0.00 0.00 0.00 0.00 0.00 0.00 0.00 0.00
0.28 0.35 0.38 0.52 0.73 0.77 0.70 0.67 0.68 0.86 1.23 0.66 0.96 0.98 0.64 1.07 0.91 1.05 0.78 0.49 0.43 0.43 0.44 0.67 0.36 0.16 0.12 0.20 0.16 0.13 0.03 0.02 0.00 0.03 0.10 0.10 0.09 0.09 0.10 0.11 0.14 0.11 0.14 0.16 0.23 0.34 0.29 0.27 0.17 0.08 0.03 0.02 0.03 0.02 0.01 0.01 0.00 0.00 0.00 0.00 0.00 0.00 0.00 0.00 0.00 0.00 0.00 0.00 0.00 0.00 0.00 0.00 0.00 0.00 0.00 0.00 0.00 0.00 0.00 0.00 0.00 0.00 0.00 0.00 0.00 0.00 0.00 0.00
0.23 0.37 0.45 0.37 0.51 0.80 0.71 0.72 0.71 0.79 1.07 1.13 0.58 1.12 0.73 0.56 1.30 1.02 1.12 0.62 0.71 0.51 0.67 0.83 0.34 0.33 0.11 0.11 0.06 0.05 0.03 0.00 0.00 0.02 0.07 0.11 0.08 0.13 0.09 0.17 0.20 0.15 0.12 0.12 0.17 0.25 0.31 0.29 0.20 0.10 0.08 0.02 0.00 0.02 0.02 0.01 0.01 0.00 0.00 0.00 0.00 0.00 0.00 0.00 0.00 0.00 0.00 0.00 0.00 0.00 0.00 0.00 0.00 0.00 0.00 0.00 0.00 0.00 0.00 0.00 0.00 0.00 0.00 0.00 0.00 0.00 0.00 0.00
0.17 0.48 0.29 0.42 0.40 0.72 0.86 0.72 0.79 0.66 0.99 1.19 0.92 0.62 1.32 0.53 0.81 1.33 0.95 1.04 0.89 0.86 0.56 0.45 1.03 0.32 0.19 0.12 0.06 0.07 0.01 0.10 0.03 0.00 0.02 0.05 0.04 0.03 0.06 0.13 0.09 0.12 0.12 0.12 0.15 0.20 0.31 0.31 0.21 0.11 0.08 0.06 0.01 0.01 0.02 0.02 0.02 0.00 0.05 0.00 0.00 0.00 0.00 0.00 0.00 0.00 0.00 0.00 0.00 0.00 0.00 0.00 0.00 0.00 0.00 0.00 0.00 0.00 0.00 0.00 0.00 0.00 0.00 0.00 0.00 0.00 0.00 0.00
0.24 0.18 0.22 0.40 0.59 0.55 0.83 0.77 0.76 0.77 0.72 1.19 1.13 0.81 0.82 1.18 0.61 1.16 0.95 1.10 1.07 0.60 0.82 0.41 0.88 0.53 0.34 0.09 0.05 0.07 0.01 0.00 0.00 0.00 0.00 0.01 0.02 0.01 0.02 0.10 0.14 0.16 0.12 0.14 0.12 0.15 0.19 0.19 0.18 0.16 0.15 0.14 0.06 0.03 0.03 0.07 0.03 0.00 0.00 0.00 0.00 0.01 0.01 0.00 0.00 0.00 0.00 0.00 0.00 0.00 0.00 0.00 0.00 0.00 0.00 0.00 0.00 0.00 0.00 0.00 0.00 0.00 0.00 0.00 0.00 0.00 0.00 0.00
0.18 0.16 0.22 0.20 0.40 0.57 0.70 0.82 0.77 0.77 0.91 1.05 1.18 1.06 0.78 0.94 0.97 0.86 1.21 1.23 1.43 0.75 0.87 0.82 0.53 0.98 0.37 0.35 0.05 0.20 0.02 0.10 0.00 0.00 0.00 0.00 0.00 0.00 0.01 0.02 0.05 0.13 0.17 0.23 0.19 0.15 0.14 0.21 0.25 0.29 0.29 0.23 0.13 0.06 0.02 0.02 0.03 0.03 0.01 0.04 0.05 0.00 0.00 0.00 0.00 0.00 0.00 0.00 0.00 0.00 0.00 0.00 0.00 0.00 0.00 0.00 0.00 0.00 0.00 0.00 0.00 0.00 0.00 0.00 0.00 0.00 0.00 0.00
0.18 0.17 0.16 0.18 0.32 0.55 0.54 0.62 0.72 0.79 1.03 0.99 1.48 1.05 1.13 0.81 0.95 1.17 0.92 1.54 1.04 1.18 1.00 0.62 0.79 1.22 0.43 0.40 0.07 0.07 0.01 0.06 0.03 0.00 0.00 0.00 0.00 0.00 0.00 0.02 0.04 0.10 0.19 0.30 0.31 0.26 0.14 0.21 0.29 0.31 0.25 0.19 0.16 0.09 0.05 0.02 0.01 0.03 0.02 0.02 0.05 0.01 0.01 0.00 0.00 0.00 0.00 0.00 0.00 0.00 0.00 0.00 0.00 0.00 0.00 0.00 0.00 0.00 0.00 0.00 0.00 0.00 0.00 0.00 0.00 0.00 0.00 0.00
0.15 0.21 0.16 0.25 0.21 0.64 0.46 0.59 0.76 0.73 0.92 1.29 1.22 1.56 0.95 1.05 0.98 1.14 1.17 1.46 1.24 1.23 1.56 1.06 1.19 1.06 0.46 0.23 0.19 0.01 0.01 0.01 0.00 0.00 0.00 0.00 0.00 0.00 0.01 0.03 0.04 0.06 0.15 0.26 0.34 0.33 0.45 0.21 0.29 0.33 0.21 0.17 0.16 0.09 0.06 0.02 0.02 0.03 0.04 0.04 0.03 0.05 0.03 0.00 0.00 0.00 0.00 0.00 0.00 0.00 0.00 0.00 0.00 0.00 0.00 0.00 0.00 0.00 0.00 0.00 0.00 0.00 0.00 0.00 0.00 0.00 0.00 0.00
0.19 0.14 0.15 0.18 0.25 0.36 0.38 0.52 0.72 0.74 0.92 1.25 1.33 1.70 1.19 0.86 1.22 1.22 1.91 1.43 1.69 1.64 1.44 1.39 1.91 1.79 0.94 0.36 0.23 0.05 0.05 0.01 0.00 0.00 0.00 0.00 0.00 0.00 0.01 0.00 0.02 0.03 0.06 0.15 0.26 0.29 0.28 0.29 0.39 0.36 0.32 0.18 0.16 0.16 0.14 0.07 0.02 0.02 0.05 0.06 0.04 0.03 0.05 0.00 0.00 0.00 0.00 0.00 0.00 0.00 0.00 0.00 0.00 0.00 0.00 0.00 0.00 0.00 0.00 0.00 0.00 0.00 0.00 0.00 0.00 0.00 0.00 0.00
0.20 0.14 0.13 0.15 0.21 0.36 0.40 0.47 0.68 0.82 0.92 1.07 1.51 1.72 1.56 0.91 0.98 1.41 2.00 1.59 1.62 1.82 2.11 2.44 2.54 1.18 0.89 0.44 0.16 0.14 0.04 0.02 0.00 0.00 0.01 0.00 0.04 0.39 0.01 0.00 0.02 0.03 0.03 0.12 0.19 0.29 0.22 0.24 0.39 0.43 0.34 0.20 0.23 0.28 0.23 0.14 0.07 0.02 0.04 0.05 0.03 0.02 0.02 0.01 0.01 0.00 0.00 0.00 0.00 0.00 0.00 0.00 0.00 0.00 0.00 0.00 0.00 0.00 0.00 0.00 0.00 0.00 0.00 0.00 0.00 0.00 0.00 0.00
0.17 0.16 0.13 0.19 0.20 0.26 0.29 0.43 0.61 0.87 0.99 1.21 1.46 1.52 1.65 1.52 1.23 1.66 2.16 2.05 2.79 3.08 2.74 2.98 1.95 0.81 1.42 0.51 0.19 0.16 0.13 0.01 0.00 0.00 0.00 0.00 0.00 0.00 0.00 0.01 0.04 0.05 0.06 0.17 0.15 0.23 0.34 0.28 0.33 0.32 0.32 0.30 0.28 0.26 0.26 0.20 0.13 0.05 0.02 0.02 0.02 0.01 0.01 0.01 0.00 0.00 0.00 0.00 0.00 0.00 0.00 0.00 0.00 0.00 0.00 0.00 0.00 0.00 0.00 0.00 0.00 0.00 0.00 0.00 0.00 0.00 0.00 0.00
0.16 0.17 0.13 0.21 0.17 0.26 0.17 0.65 0.81 0.92 0.89 1.31 1.22 1.99 1.92 1.89 1.54 1.64 2.77 3.08 3.23 3.12 3.10 2.34 2.21 1.85 1.47 0.77 0.25 0.12 0.06 0.01 0.00 0.00 0.07 0.00 0.00 0.00 0.00 0.02 0.05 0.13 0.08 0.13 0.18 0.26 0.32 0.34 0.30 0.36 0.34 0.29 0.27 0.23 0.22 0.24 0.14 0.07 0.02 0.01 0.01 0.00 0.00 0.00 0.00 0.00 0.00 0.00 0.00 0.00 0.00 0.00 0.00 0.00 0.00 0.00 0.00 0.00 0.00 0.00 0.00 0.00 0.00 0.00 0.00 0.00 0.00 0.00
0.21 0.20 0.17 0.17 0.17 0.28 0.20 0.41 0.70 1.04 1.00 1.34 1.62 2.02 1.99 2.41 2.69 2.09 3.86 3.51 3.92 6.22 5.27 5.17 3.86 2.10 1.53 0.82 0.20 0.11 0.07 0.05 0.00 0.00 0.00 0.00 0.00 0.00 0.00 0.02 0.04 0.08 0.13 0.17 0.29 0.24 0.26 0.30 0.27 0.37 0.38 0.27 0.25 0.23 0.19 0.12 0.04 0.02 0.01 0.00 0.00 0.00 0.00 0.00 0.00 0.00 0.01 0.00 0.00 0.00 0.00 0.00 0.00 0.00 0.00 0.00 0.00 0.00 0.00 0.00 0.00 0.00 0.00 0.00 0.00 0.00 0.00 0.00
0.14 0.15 0.15 0.19 0.19 0.32 0.28 0.38 0.66 1.09 1.06 1.51 2.35 2.82 2.78 3.26 3.79 3.79 4.08 1.94 2.14 2.24 2.46 2.37 2.29 1.92 0.95 0.49 0.57 0.14 0.01 0.01 0.00 0.01 0.02 0.00 0.00 0.00 0.01 0.02 0.06 0.14 0.29 0.16 0.23 0.21 0.16 0.21 0.34 0.33 0.30 0.23 0.16 0.09 0.06 0.02 0.00 0.00 0.00 0.00 0.00 0.00 0.00 0.00 0.00 0.00 0.01 0.02 0.01 0.00 0.00 0.00 0.01 0.00 0.00 0.00 0.00 0.00 0.00 0.00 0.00 0.00 0.00 0.00 0.00 0.00 0.00 0.00
0.20 0.18 0.18 0.28 0.20 0.36 0.42 0.37 0.61 1.09 1.13 1.25 1.70 1.60 2.57 1.92 2.01 2.40 3.26 2.67 1.45 1.51 1.55 1.83 1.56 0.93 0.69 0.45 0.29 0.03 0.14 0.10 0.22 0.14 0.00 0.00 0.00 0.00 0.01 0.03 0.06 0.13 0.16 0.13 0.11 0.14 0.12 0.19 0.15 0.13 0.10 0.06 0.04 0.02 0.02 0.01 0.01 0.01 0.01 0.02 0.01 0.00 0.01 0.00 0.00 0.00 0.00 0.01 0.01 0.00 0.00 0.00 0.00 0.00 0.00 0.00 0.00 0.00 0.00 0.00 0.00 0.00 0.00 0.00 0.00 0.00 0.00 0.00
0.16 0.23 0.25 0.29 0.34 0.41 0.56 0.37 0.66 0.89 1.11 1.52 1.42 1.43 1.75 1.71 1.70 2.11 1.85 2.04 1.16 1.51 1.55 1.49 1.21 0.95 0.75 0.56 0.84 0.35 0.14 0.40 0.10 0.01 0.07 0.00 0.03 0.00 0.05 0.03 0.06 0.10 0.13 0.16 0.12 0.13 0.21 0.18 0.15 0.06 0.03 0.01 0.01 0.03 0.03 0.03 0.05 0.05 0.04 0.03 0.01 0.01 0.00 0.00 0.00 0.00 0.00 0.00 0.01 0.00 0.00 0.00 0.00 0.00 0.00 0.00 0.00 0.00 0.00 0.00 0.00 0.00 0.00 0.00 0.00 0.00 0.00 0.00
0.21 0.24 0.46 0.36 0.40 0.44 0.70 0.37 0.75 0.77 1.27 1.59 1.30 1.16 1.34 1.14 1.05 1.25 1.63 2.07 1.59 1.25 1.16 1.52 1.02 0.86 0.77 0.57 0.78 0.18 0.13 0.12 0.39 0.09 0.06 0.00 0.02 0.03 0.01 0.04 0.04 0.05 0.08 0.08 0.17 0.24 0.23 0.13 0.07 0.02 0.01 0.01 0.02 0.04 0.06 0.07 0.09 0.11 0.08 0.05 0.03 0.01 0.00 0.00 0.00 0.00 0.00 0.01 0.01 0.00 0.00 0.00 0.00 0.00 0.00 0.00 0.00 0.00 0.00 0.00 0.00 0.00 0.00 0.00 0.00 0.00 0.00 0.00
0.19 0.28 0.34 0.55 0.51 0.45 0.50 0.36 0.88 0.96 1.34 0.94 0.84 0.94 0.97 1.01 0.72 0.87 1.22 1.78 1.63 1.67 1.30 1.38 1.09 0.85 0.72 0.94 0.57 0.64 0.09 0.07 0.08 0.15 0.05 0.02 0.03 0.11 0.02 0.01 0.02 0.03 0.07 0.05 0.06 0.10 0.13 0.06 0.04 0.01 0.01 0.02 0.03 0.06 0.05 0.07 0.10 0.10 0.07 0.06 0.03 0.01 0.00 0.00 0.00 0.00 0.00 0.01 0.00 0.00 0.00 0.00 0.00 0.00 0.00 0.00 0.00 0.00 0.00 0.00 0.00 0.00 0.00 0.00 0.00 0.00 0.00 0.00
0.45 0.27 0.40 0.45 0.58 0.42 0.67 0.63 1.61 1.07 0.77 1.08 1.15 0.80 0.82 0.65 0.64 0.67 1.18 2.07 1.84 1.31 1.46 1.63 1.03 0.82 1.07 0.84 0.76 0.56 0.39 0.09 0.04 0.02 0.00 0.06 0.08 0.02 0.01 0.01 0.01 0.03 0.03 0.03 0.04 0.04 0.04 0.02 0.04 0.31 0.02 0.03 0.06 0.06 0.06 0.05 0.05 0.05 0.05 0.03 0.02 0.00 0.00 0.00 0.00 0.01 0.03 0.02 0.00 0.00 0.00 0.00 0.00 0.00 0.00 0.00 0.00 0.00 0.00 0.00 0.00 0.00 0.00 0.00 0.00 0.00 0.00 0.00
0.97 0.87 0.54 0.60 0.65 0.56 0.97 1.35 0.89 0.90 0.85 1.19 0.72 0.79 0.85 0.70 0.75 0.95 1.25 1.78 2.06 1.32 1.30 1.89 0.80 0.97 0.61 0.83 0.86 0.55 0.43 0.42 0.06 0.01 0.01 0.04 0.07 0.06 0.10 0.02 0.01 0.04 0.02 0.02 0.03 0.03 0.04 0.02 0.01 0.04 0.04 0.05 0.06 0.08 0.07 0.03 0.03 0.03 0.03 0.01 0.00 0.00 0.00 0.00 0.01 0.02 0.05 0.05 0.02 0.00 0.00 0.00 0.00 0.00 0.00 0.00 0.00 0.00 0.00 0.00 0.00 0.00 0.00 0.00 0.00 0.00 0.00 0.00
1.54 1.20 1.10 1.28 1.02 0.94 1.78 1.09 0.54 1.00 1.06 0.79 0.75 0.74 0.80 0.70 0.95 1.08 1.11 2.01 1.94 1.65 1.11 1.21 0.94 1.03 0.51 0.95 0.93 0.64 0.88 0.91 0.28 0.23 0.09 0.03 0.04 0.02 0.04 0.06 0.01 0.02 0.01 0.05 0.06 0.05 0.01 0.03 0.04 0.05 0.06 0.07 0.07 0.07 0.05 0.03 0.02 0.02 0.01 0.00 0.00 0.00 0.00 0.01 0.03 0.02 0.02 0.01 0.01 0.01 0.00 0.00 0.00 0.00 0.00 0.00 0.00 0.00 0.00 0.00 0.00 0.00 0.00 0.00 0.00 0.00 0.00 0.00
1.98 1.72 1.30 1.35 1.22 0.65 0.58 0.47 0.45 0.72 0.55 0.55 0.53 0.44 0.69 0.72 0.86 1.29 1.42 2.32 1.98 1.36 0.98 1.16 1.08 1.33 0.39 0.62 0.84 0.74 0.75 0.67 0.35 0.36 0.36 0.09 0.01 0.01 0.02 0.00 0.00 0.01 0.01 0.01 0.04 0.03 0.01 0.04 0.06 0.06 0.07 0.08 0.08 0.07 0.03 0.01 0.01 0.01 0.00 0.06 0.01 0.00 0.01 0.04 0.05 0.03 0.01 0.01 0.02 0.01 0.00 0.00 0.00 0.00 0.00 0.00 0.00 0.00 0.00 0.00 0.00 0.00 0.00 0.00 0.00 0.00 0.00 0.00
1.40 1.60 1.84 1.80 1.25 1.10 1.06 0.68 0.29 0.35 0.40 0.58 0.45 0.47 0.52 0.73 1.01 1.37 2.01 2.36 1.47 1.02 1.18 1.14 0.85 1.08 0.73 0.68 0.84 0.53 0.46 0.45 0.38 0.49 0.20 0.41 0.20 0.02 0.06 0.00 0.00 0.00 0.05 0.01 0.02 0.02 0.01 0.02 0.05 0.05 0.08 0.06 0.06 0.03 0.01 0.00 0.00 0.00 0.00 0.00 0.00 0.02 0.04 0.05 0.04 0.02 0.01 0.01 0.03 0.01 0.00 0.00 0.00 0.00 0.00 0.00 0.00 0.00 0.00 0.00 0.00 0.00 0.00 0.00 0.00 0.00 0.00 0.00
1.05 1.52 1.92 2.63 2.94 3.13 1.78 0.85 0.81 0.88 0.42 0.31 0.43 0.53 0.74 0.82 1.53 1.88 2.53 2.34 1.36 1.12 0.92 0.94 0.75 1.21 0.81 1.08 1.14 0.92 0.58 0.47 0.27 0.26 0.46 0.53 0.41 0.40 0.04 0.00 0.10 0.06 0.06 0.00 0.02 0.00 0.00 0.01 0.04 0.03 0.03 0.03 0.01 0.01 0.03 0.00 0.01 0.02 0.00 0.03 0.03 0.07 0.05 0.03 0.02 0.01 0.01 0.03 0.03 0.01 0.00 0.00 0.00 0.00 0.00 0.00 0.00 0.00 0.00 0.00 0.00 0.00 0.00 0.00 0.00 0.00 0.00 0.00
1.91 1.32 1.56 2.88 3.58 2.17 1.67 1.48 1.77 1.10 0.98 0.84 0.57 0.69 1.01 1.52 1.71 2.32 2.87 2.14 1.15 1.02 0.82 0.89 0.77 0.89 0.77 0.79 1.02 0.89 0.67 0.36 0.34 0.17 0.37 0.26 0.16 0.07 0.24 0.34 1.14 0.17 0.18 0.11 0.00 0.00 0.00 0.01 0.02 0.02 0.01 0.01 0.00 0.00 0.00 0.00 0.00 0.02 0.04 0.06 0.08 0.11 0.08 0.06 0.05 0.02 0.04 0.04 0.02 0.01 0.00 0.00 0.00 0.00 0.00 0.00 0.00 0.00 0.00 0.00 0.00 0.00 0.00 0.00 0.00 0.00 0.00 0.00
1.58 1.90 2.46 2.43 1.72 1.59 1.48 1.52 2.29 2.26 2.10 1.86 1.28 1.74 1.83 2.34 1.85 2.53 2.49 1.53 1.05 0.91 0.85 1.06 0.81 0.94 0.66 0.59 1.09 0.80 0.58 0.41 0.29 0.18 0.21 0.20 0.13 0.08 0.03 0.03 0.03 0.09 0.03 0.02 0.02 0.00 0.01 0.01 0.01 0.01 0.00 0.00 0.00 0.01 0.02 0.03 0.05 0.07 0.09 0.07 0.11 0.19 0.14 0.22 0.12 0.12 0.08 0.04 0.01 0.00 0.00 0.00 0.00 0.00 0.00 0.00 0.00 0.00 0.00 0.00 0.00 0.00 0.00 0.00 0.00 0.00 0.00 0.00
1.62 1.96 2.03 2.40 2.01 1.75 1.15 1.14 2.45 1.85 2.53 3.23 2.66 3.35 2.57 2.74 3.60 2.47 1.97 1.37 1.07 0.70 0.61 0.97 0.76 0.78 0.68 0.49 0.67 0.66 0.65 0.53 0.27 0.15 0.15 0.13 0.12 0.14 0.05 0.02 0.03 0.03 0.06 0.01 0.01 0.01 0.01 0.00 0.01 0.00 0.00 0.00 0.00 0.03 0.08 0.09 0.09 0.08 0.10 0.09 0.10 0.15 0.14 0.11 0.08 0.04 0.03 0.01 0.00 0.00 0.00 0.00 0.00 0.00 0.00 0.00 0.00 0.00 0.00 0.00 0.00 0.00 0.00 0.00 0.00 0.00 0.00 0.00
1.97 2.61 3.90 3.02 2.70 1.65 1.81 1.96 2.84 2.56 3.37 3.64 3.75 3.45 3.46 4.02 3.72 1.97 1.45 1.14 0.84 0.42 0.41 0.46 0.65 0.67 0.65 0.63 0.62 0.43 0.45 0.48 0.31 0.21 0.10 0.11 0.10 0.08 0.06 0.01 0.02 0.01 0.01 0.00 0.01 0.01 0.05 0.11 0.03 0.01 0.01 0.00 0.01 0.02 0.05 0.07 0.07 0.05 0.03 0.03 0.10 0.04 0.04 0.04 0.03 0.03 0.02 0.01 0.00 0.00 0.00 0.00 0.00 0.00 0.00 0.00 0.00 0.00 0.00 0.00 0.00 0.00 0.00 0.00 0.00 0.00 0.00 0.00
2.59 3.42 2.81 2.86 3.11 2.77 2.41 1.93 2.25 3.31 4.12 4.80 5.35 5.14 5.53 5.19 3.41 2.17 1.40 0.92 0.63 0.46 0.38 0.44 0.55 0.73 0.80 0.74 0.48 0.35 0.54 0.60 0.25 0.20 0.17 0.08 0.12 0.06 0.04 0.01 0.00 0.00 0.00 0.00 0.00 0.00 0.01 0.03 0.02 0.00 0.00 0.00 0.00 0.00 0.01 0.01 0.01 0.01 0.00 0.03 0.06 0.01 0.00 0.04 0.00 0.00 0.01 0.01 0.00 0.00 0.00 0.00 0.00 0.00 0.00 0.00 0.00 0.00 0.00 0.00 0.00 0.00 0.00 0.00 0.00 0.00 0.00 0.00
3.41 5.24 3.42 4.55 3.17 3.12 2.28 2.52 3.37 3.98 5.72 6.05 6.17 7.20 6.02 3.72 2.77 1.85 1.15 0.90 0.54 0.47 0.45 0.51 0.52 0.74 0.90 0.75 0.54 0.41 0.19 0.99 0.40 0.17 0.18 0.10 0.09 0.06 0.05 0.03 0.02 0.00 0.05 0.01 0.00 0.03 0.01 0.02 0.01 0.01 0.00 0.00 0.00 0.00 0.01 0.00 0.02 0.01 0.00 0.02 0.01 0.00 0.00 0.00 0.00 0.00 0.00 0.00 0.01 0.00 0.00 0.00 0.00 0.00 0.00 0.00 0.00 0.00 0.00 0.00 0.00 0.00 0.00 0.00 0.00 0.00 0.00 0.00
6.09 4.40 6.89 3.81 2.31 2.15 2.39 2.70 4.69 5.72 6.44 5.81 5.83 6.67 5.36 3.23 2.15 1.63 0.87 0.50 0.57 0.60 0.47 0.81 0.95 0.59 0.88 0.92 0.81 0.59 0.30 0.32 0.57 0.23 0.24 0.11 0.05 0.02 0.01 0.00 0.00 0.03 0.00 0.05 0.02 0.02 0.02 0.02 0.01 0.01 0.01 0.00 0.00 0.00 0.00 0.03 0.02 0.01 0.01 0.02 0.00 0.00 0.00 0.00 0.01 0.00 0.00 0.02 0.02 0.00 0.00 0.00 0.00 0.00 0.00 0.00 0.00 0.00 0.00 0.00 0.00 0.00 0.00 0.00 0.00 0.00 0.00 0.00
4.62 4.45 3.45 2.48 2.57 2.60 2.68 4.04 5.14 8.03 7.17 7.93 6.61 4.46 2.92 1.92 1.64 1.14 0.78 0.69 0.96 0.71 0.45 0.76 0.87 0.52 0.62 0.73 0.84 0.69 0.35 0.28 0.42 0.23 0.23 0.09 0.09 0.03 0.01 0.00 0.00 0.01 0.00 0.00 0.02 0.00 0.00 0.07 0.01 0.01 0.01 0.00 0.00 0.00 0.01 0.00 0.00 0.00 0.04 0.00 0.00 0.02 0.01 0.01 0.00 0.02 0.02 0.03 0.02 0.00 0.00 0.00 0.00 0.00 0.00 0.00 0.00 0.00 0.00 0.00 0.00 0.00 0.00 0.00 0.00 0.00 0.00 0.00
3.17 3.67 5.88 2.84 1.87 2.34 3.02 3.75 6.05 8.14 9.96 8.88 5.92 4.20 2.53 1.38 0.99 0.56 0.43 0.43 0.43 0.91 0.68 0.46 0.62 0.60 0.54 0.51 0.63 0.58 0.37 0.28 0.34 0.24 0.16 0.15 0.06 0.03 0.02 0.01 0.01 0.00 0.00 0.01 0.03 0.01 0.13 0.10 0.03 0.02 0.01 0.01 0.00 0.00 0.03 0.02 0.00 0.00 0.00 0.03 0.05 0.01 0.01 0.02 0.05 0.05 0.17 0.11 0.12 0.11 0.03 0.03 0.00 0.00 0.00 0.00 0.00 0.00 0.00 0.00 0.00 0.00 0.00 0.00 0.00 0.00 0.00 0.00
4.85 5.79 3.91 2.82 2.06 1.78 3.37 5.17 11.20 10.91 8.99 7.75 5.89 3.76 2.58 1.21 0.68 0.63 0.42 0.23 0.42 0.48 0.44 0.48 0.65 0.48 0.39 0.41 0.43 0.49 0.41 0.28 0.24 0.25 0.14 0.18 0.05 0.02 0.01 0.00 0.00 0.00 0.00 0.01 0.08 0.04 0.02 0.07 0.10 0.09 0.03 0.01 0.01 0.01 0.01 0.01 0.01 0.00 0.02 0.01 0.00 0.00 0.01 0.03 0.11 0.04 0.02 0.14 0.06 0.08 0.09 0.04 0.01 0.00 0.00 0.00 0.00 0.00 0.00 0.00 0.00 0.00 0.00 0.00 0.00 0.00 0.00 0.00
3.80 3.85 3.56 2.51 1.82 2.19 4.55 10.09 11.11 9.66 7.81 6.12 4.40 3.10 1.93 1.02 0.61 0.39 0.32 0.23 0.55 0.37 0.47 0.55 0.56 0.75 0.72 0.45 0.50 0.41 0.52 0.28 0.24 0.23 0.17 0.13 0.05 0.04 0.01 0.00 0.00 0.02 0.01 0.12 0.09 0.05 0.11 0.07 0.05 0.04 0.02 0.02 0.01 0.00 0.01 0.00 0.00 0.01 0.03 0.01 0.01 0.02 0.16 0.06 0.03 0.00 0.03 0.05 0.05 0.14 0.12 0.11 0.02 0.00 0.00 0.00 0.00 0.00 0.00 0.00 0.00 0.00 0.00 0.00 0.00 0.00 0.00 0.14
4.56 5.80 3.71 2.38 2.27 2.46 4.92 10.33 8.45 5.97 6.06 4.94 4.06 2.74 1.65 0.95 0.60 0.33 0.27 0.21 0.37 0.48 0.32 0.50 0.44 0.49 0.52 0.52 0.50 0.36 0.80 0.45 0.32 0.27 0.18 0.12 0.09 0.03 0.02 0.01 0.01 0.01 0.02 0.02 0.03 0.28 0.10 0.21 0.16 0.11 0.08 0.05 0.02 0.00 0.00 0.00 0.00 0.00 0.01 0.00 0.06 0.12 0.04 0.15 0.18 0.04 0.01 0.08 0.13 0.34 0.36 0.12 0.05 0.05 0.01 0.00 0.00 0.00 0.00 0.00 0.00 0.00 0.00 0.00 0.00 0.00 0.03 0.06
5.22 3.80 4.17 3.15 2.98 2.90 4.96 5.81 5.64 6.05 5.60 4.50 3.08 1.80 1.23 0.91 0.63 0.47 0.45 0.63 0.64 0.55 0.56 0.59 0.45 0.39 0.42 0.35 0.48 0.48 0.48 0.67 0.37 0.24 0.16 0.10 0.06 0.07 0.06 0.03 0.01 0.05 0.20 0.03 0.04 0.30 0.06 1.27 0.20 0.16 0.12 0.08 0.05 0.03 0.01 0.00 0.00 0.01 0.03 0.01 0.05 0.05 0.02 0.06 0.18 0.27 0.19 0.08 0.24 0.23 0.47 0.24 0.18 0.06 0.01 0.00 0.00 0.00 0.00 0.00 0.00 0.00 0.00 0.00 0.00 0.00 0.00 0.00
3.98 3.76 4.60 4.36 3.77 5.10 3.83 5.34 5.71 5.25 4.52 3.71 2.39 1.77 1.20 0.93 0.62 0.62 0.46 0.39 0.42 0.53 0.46 0.53 0.42 0.29 0.22 0.17 0.40 0.49 0.45 0.97 0.56 0.34 0.23 0.14 0.08 0.07 0.03 0.02 0.03 0.48 0.06 0.37 0.24 1.46 1.03 0.27 0.34 0.33 0.42 0.22 0.12 0.07 0.04 0.01 0.00 0.02 0.01 0.01 0.02 0.01 0.06 0.06 0.48 0.82 0.55 0.15 0.11 0.41 0.27 0.19 0.13 0.13 0.23 0.09 0.04 0.11 0.01 0.01 0.01 0.00 0.00 0.00 0.00 0.00 0.00 0.00
3.60 4.01 3.93 6.33 5.56 6.60 5.71 3.34 3.60 3.90 3.42 2.59 2.17 1.93 1.31 1.12 0.67 0.50 0.43 0.38 0.41 0.58 0.47 0.55 0.39 0.34 0.45 0.35 0.28 0.31 0.78 0.54 0.61 0.37 0.21 0.16 0.13 0.14 0.08 0.07 0.34 0.13 0.40 0.35 0.13 0.34 0.38 0.24 0.41 0.67 0.78 0.66 0.46 0.27 0.18 0.07 0.03 0.03 0.03 0.01 0.00 0.00 0.01 0.08 0.35 0.30 0.34 0.28 0.20 0.21 0.14 0.07 0.03 0.04 0.00 0.01 0.07 0.01 0.04 0.06 0.20 0.04 0.14 0.01 0.01 0.01 0.00 0.00
4.07 4.50 5.30 5.39 9.30 7.37 4.43 3.17 2.88 2.39 2.19 2.07 2.26 1.63 1.34 1.11 0.76 0.74 0.49 0.50 0.27 0.50 0.51 0.81 0.93 0.86 0.78 0.73 0.79 0.58 0.49 0.93 0.57 0.56 0.34 0.22 0.15 0.13 0.22 0.12 0.13 0.21 0.16 0.17 1.75 0.38 0.38 0.43 0.39 0.52 0.62 0.52 0.35 0.18 0.09 0.04 0.10 0.09 0.06 0.15 0.05 0.14 0.13 0.17 0.32 0.33 0.30 0.16 0.25 0.28 0.21 0.15 0.17 0.08 0.06 0.19 0.28 0.11 0.22 0.23 0.11 0.15 0.10 0.05 0.03 0.03 0.02 0.00
3.84 3.82 4.42 5.39 5.90 6.58 4.68 3.04 2.66 2.48 2.04 1.64 1.76 1.56 1.18 0.93 0.74 0.66 0.47 1.04 0.42 0.41 0.54 0.63 0.61 0.69 0.69 0.70 0.73 0.78 0.66 0.56 0.51 0.56 0.34 0.16 0.08 0.04 0.04 0.02 0.02 0.01 0.03 0.26 0.13 0.50 0.88 0.56 0.44 0.36 0.31 0.26 0.28 0.13 0.08 0.06 0.08 0.08 0.07 0.03 0.03 0.08 0.05 0.26 0.36 0.07 0.19 0.23 0.19 0.11 0.04 0.22 0.12 0.12 0.19 0.08 0.19 0.13 0.10 0.02 0.00 0.00 0.00 0.00 0.00 0.00 0.00 0.00
3.75 3.51 3.20 4.01 4.18 5.01 4.70 3.68 2.42 2.39 2.41 1.83 1.65 1.38 0.85 0.71 0.75 0.92 0.97 0.57 0.57 0.50 0.94 0.98 0.76 0.63 0.54 0.48 0.57 0.58 0.52 0.50 0.61 0.43 0.26 0.20 0.16 0.20 0.08 0.04 0.04 0.03 0.18 0.54 0.22 0.51 0.80 0.57 0.45 0.28 0.26 0.23 0.14 0.09 0.07 0.07 0.10 0.10 0.11 0.10 0.07 0.01 0.02 0.08 0.06 0.02 0.11 0.43 0.19 0.09 0.07 0.13 0.13 0.17 0.23 0.13 0.03 0.02 0.04 0.02 0.01 0.01 0.00 0.00 0.00 0.00 0.00 0.00
2.64 2.71 2.33 3.11 2.32 2.69 3.44 3.16 1.91 1.70 2.05 2.11 2.09 1.66 1.19 0.82 0.65 0.64 0.72 0.84 0.64 0.96 0.54 0.99 0.90 0.60 0.52 0.55 0.65 0.58 0.64 0.93 0.75 0.52 0.46 0.28 0.23 0.20 0.41 0.18 0.23 0.21 0.21 0.13 0.13 0.20 0.67 0.72 0.52 0.22 0.24 0.25 0.15 0.10 0.08 0.10 0.07 0.07 0.12 0.04 0.02 0.02 0.03 0.05 0.01 0.01 0.14 0.10 0.14 0.12 0.06 0.06 0.15 0.15 0.24 0.21 0.14 0.21 0.22 0.04 0.02 0.01 0.00 0.00 0.00 0.00 0.00 0.00
2.05 1.99 1.81 1.80 1.77 2.23 1.95 1.58 1.71 1.96 2.34 1.61 2.70 2.11 1.55 1.24 0.83 0.55 0.80 0.80 1.14 0.80 0.70 0.74 0.59 0.45 0.46 0.51 0.74 0.77 0.68 0.64 0.62 0.62 0.71 0.39 0.40 0.38 0.32 0.32 0.27 0.52 0.37 0.40 0.53 0.71 0.71 0.73 0.64 0.41 0.47 0.42 0.25 0.15 0.08 0.09 0.11 0.12 0.09 0.06 0.04 0.03 0.02 0.01 0.03 0.06 0.07 0.15 0.08 0.19 0.23 0.11 0.10 0.19 0.08 0.06 0.05 0.03 0.01 0.01 0.01 0.00 0.00 0.00 0.00 0.00 0.00 0.00
1.79 1.44 1.59 1.60 1.69 1.53 1.56 1.59 1.64 1.89 2.20 2.30 2.35 1.88 1.41 1.22 0.95 0.73 0.68 0.72 0.78 0.79 0.81 0.72 0.79 0.61 0.90 1.06 1.00 0.73 0.73 0.67 0.70 0.72 0.68 1.07 0.90 0.88 0.93 0.70 0.71 0.46 0.53 0.77 0.58 0.61 1.26 0.94 0.79 0.79 0.94 0.91 0.55 0.36 0.18 0.32 0.38 0.32 0.26 0.25 0.13 0.14 0.08 0.04 0.07 0.10 0.19 0.06 0.09 0.11 0.16 0.07 0.11 0.10 0.05 0.02 0.01 0.01 0.01 0.01 0.00 0.00 0.00 0.00 0.00 0.00 0.00 0.00
1.61 1.25 1.26 1.57 1.58 1.43 1.30 1.33 1.48 1.97 2.39 2.12 2.01 1.75 1.24 1.05 0.83 0.85 1.03 1.32 0.88 0.85 0.70 0.64 0.65 0.68 0.86 1.19 1.20 0.95 0.90 1.03 0.96 1.20 1.29 1.66 1.08 1.02 0.95 0.90 0.84 0.85 1.23 1.01 1.29 1.41 0.90 1.05 1.03 0.98 1.15 1.15 0.65 0.36 0.25 0.39 0.63 0.42 0.36 0.19 0.18 0.12 0.03 0.07 0.01 0.00 0.01 0.21 0.09 0.07 0.13 0.26 0.25 0.10 0.06 0.07 0.08 0.08 0.07 0.02 0.02 0.03 0.01 0.01 0.01 0.00 0.00 0.00